Location: Unspecified
(0.0000°N, 0.0000°E)
Time: 21:51:23
(UTC+00:00)

Tiangong - Pass Details

Date: 27 March 2023
Orbit: 373 x 379 km, 41.5° (Epoch: 30 March)

Event Time Altitude Azimuth Distance (km) Brightness Sun altitude
Rises 19:40:57 0° 296° (WNW) 2,218 2.8 -23.9°
Reaches altitude 10° 19:43:13 10° 282° (WNW) 1,370 1.7 -24.4°
Enters shadow 19:45:14 23° 244° (WSW) 838 0.1 -24.9°
